Time,TemperatureF,DewpointF,PressureIn,WindDirection,WindDirectionDegrees,WindSpeedMPH,WindSpeedGustMPH,Humidity,HourlyPrecipIn,Conditions,Clouds,dailyrainin,SolarRadiationWatts/m^2,SoftwareType,DateUTC
2013-04-11 00:00:00,73.4,56.8,29.88,SW,227,0.0,2.0,56,0.00,,SKC,0.00,0.00,VWS V14.01,2013-04-11 04:00:00,
2013-04-11 00:05:00,73.3,56.7,29.87,SW,227,0.0,0.0,56,0.00,,SKC,0.00,0.00,VWS V14.01,2013-04-11 04:05:00,
2013-04-11 00:10:00,71.3,55.8,29.88,SW,227,1.0,2.0,58,0.00,,SKC,0.00,0.00,VWS V14.01,2013-04-11 04:10:00,
2013-04-11 00:15:00,70.8,56.2,29.88,SW,227,2.0,2.0,60,0.00,,SKC,0.00,0.00,VWS V14.01,2013-04-11 04:15:00,
2013-04-11 00:20:00,70.9,55.9,29.87,SW,227,1.0,3.0,59,0.00,,SKC,0.00,0.00,VWS V14.01,2013-04-11 04:20:00,
2013-04-11 00:25:00,70.8,55.8,29.87,SW,227,2.0,3.0,59,0.00,,SKC,0.00,0.00,VWS V14.01,2013-04-11 04:25:00,
2013-04-11 00:26:00,70.8,55.8,29.87,SW,227,2.0,3.0,59,0.00,,SKC,0.00,0.00,VWS V14.01,2013-04-11 04:26:00,
2013-04-11 00:30:00,70.6,56.1,29.87,SW,227,0.0,3.0,60,0.00,,SKC,0.00,0.00,VWS V14.01,2013-04-11 04:30:00,
2013-04-11 00:31:00,70.6,56.1,29.87,SW,227,2.0,2.0,60,0.00,,SKC,0.00,0.00,VWS V14.01,2013-04-11 04:31:00,
2013-04-11 00:35:00,70.6,56.1,29.87,SW,227,0.0,2.0,60,0.00,,SKC,0.00,0.00,VWS V14.01,2013-04-11 04:35:00,
2013-04-11 00:36:00,70.7,56.2,29.87,SW,227,0.0,2.0,60,0.00,,SKC,0.00,0.00,VWS V14.01,2013-04-11 04:36:00,
2013-04-11 00:37:00,70.7,56.2,29.87,SW,227,0.0,2.0,60,0.00,,SKC,0.00,0.00,VWS V14.01,2013-04-11 04:37:00,
2013-04-11 00:40:00,70.9,56.3,29.87,SW,227,1.0,2.0,60,0.00,,SKC,0.00,0.00,VWS V14.01,2013-04-11 04:40:00,
2013-04-11 00:41:00,70.9,56.3,29.87,SW,227,0.0,2.0,60,0.00,,SKC,0.00,0.00,VWS V14.01,2013-04-11 04:41:00,
2013-04-11 00:42:00,70.8,56.2,29.87,SW,227,0.0,2.0,60,0.00,,SKC,0.00,0.00,VWS V14.01,2013-04-11 04:42:00,
2013-04-11 00:46:00,70.6,56.1,29.88,SW,229,3.0,4.0,60,0.00,,SKC,0.00,0.00,VWS V14.01,2013-04-11 04:46:00,
2013-04-11 00:47:00,70.6,56.1,29.88,WSW,239,3.0,4.0,60,0.00,,SKC,0.00,0.00,VWS V14.01,2013-04-11 04:47:00,
2013-04-11 00:51:00,70.5,56.0,29.88,WSW,244,2.0,4.0,60,0.00,,SKC,0.00,0.00,VWS V14.01,2013-04-11 04:51:00,
2013-04-11 00:52:00,70.5,56.0,29.88,WSW,244,3.0,4.0,60,0.00,,SKC,0.00,0.00,VWS V14.01,2013-04-11 04:52:00,
2013-04-11 00:56:00,70.4,55.9,29.87,WSW,246,2.0,4.0,60,0.00,,SKC,0.00,0.00,VWS V14.01,2013-04-11 04:56:00,
2013-04-11 00:57:00,70.4,55.9,29.87,WSW,246,3.0,4.0,60,0.00,,SKC,0.00,0.00,VWS V14.01,2013-04-11 04:57:00,
2013-04-11 01:01:00,70.4,55.9,29.87,WSW,246,2.0,2.0,60,0.00,,SKC,0.00,0.00,VWS V14.01,2013-04-11 05:01:00,
2013-04-11 01:02:00,70.4,55.9,29.87,WSW,246,2.0,2.0,60,0.00,,SKC,0.00,0.00,VWS V14.01,2013-04-11 05:02:00,
2013-04-11 01:06:00,70.1,55.6,29.87,WNW,302,2.0,5.0,60,0.00,,SKC,0.00,0.00,VWS V14.01,2013-04-11 05:06:00,
2013-04-11 01:07:00,70.1,55.6,29.87,WNW,302,3.0,5.0,60,0.00,,SKC,0.00,0.00,VWS V14.01,2013-04-11 05:07:00,
2013-04-11 01:09:00,70.1,56.0,29.87,WNW,302,2.0,5.0,61,0.00,,SKC,0.00,0.00,VWS V14.01,2013-04-11 05:09:00,
2013-04-11 01:11:00,70.0,56.0,29.88,WNW,300,5.0,5.0,61,0.00,,SKC,0.00,0.00,VWS V14.01,2013-04-11 05:11:00,
2013-04-11 01:12:00,70.0,56.0,29.88,WNW,300,5.0,5.0,61,0.00,,SKC,0.00,0.00,VWS V14.01,2013-04-11 05:12:00,
2013-04-11 01:14:00,69.9,55.8,29.87,WNW,300,3.0,5.0,61,0.00,,SKC,0.00,0.00,VWS V14.01,2013-04-11 05:14:00,
2013-04-11 01:17:00,69.8,55.8,29.87,WNW,300,3.0,5.0,61,0.00,,SKC,0.00,0.00,VWS V14.01,2013-04-11 05:17:00,
2013-04-11 01:18:00,69.8,55.8,29.88,WNW,298,3.0,5.0,61,0.00,,SKC,0.00,0.00,VWS V14.01,2013-04-11 05:18:00,
2013-04-11 01:19:00,69.7,55.7,29.88,WNW,298,3.0,5.0,61,0.00,,SKC,0.00,0.00,VWS V14.01,2013-04-11 05:19:00,
2013-04-11 01:22:00,69.4,55.8,29.88,WNW,298,3.0,5.0,62,0.00,,SKC,0.00,0.00,VWS V14.01,2013-04-11 05:22:00,
2013-04-11 01:23:00,69.4,55.8,29.88,WNW,298,4.0,5.0,62,0.00,,SKC,0.00,0.00,VWS V14.01,2013-04-11 05:23:00,
2013-04-11 01:24:00,69.3,55.7,29.88,WNW,298,2.0,5.0,62,0.00,,SKC,0.00,0.00,VWS V14.01,2013-04-11 05:24:00,
2013-04-11 01:27:00,69.2,55.6,29.88,WNW,298,2.0,5.0,62,0.00,,SKC,0.00,0.00,VWS V14.01,2013-04-11 05:27:00,
2013-04-11 01:28:00,69.1,55.5,29.88,WNW,298,2.0,5.0,62,0.00,,SKC,0.00,0.00,VWS V14.01,2013-04-11 05:28:00,
2013-04-11 01:30:00,69.1,55.5,29.88,WNW,298,1.0,5.0,62,0.00,,SKC,0.00,0.00,VWS V14.01,2013-04-11 05:30:00,
2013-04-11 01:32:00,69.0,55.9,29.87,WNW,298,2.0,3.0,63,0.00,,SKC,0.00,0.00,VWS V14.01,2013-04-11 05:32:00,
2013-04-11 01:33:00,69.0,55.9,29.87,WNW,298,2.0,3.0,63,0.00,,SKC,0.00,0.00,VWS V14.01,2013-04-11 05:33:00,
2013-04-11 01:35:00,69.0,55.9,29.88,WNW,298,0.0,3.0,63,0.00,,SKC,0.00,0.00,VWS V14.01,2013-04-11 05:35:00,
2013-04-11 01:37:00,68.8,55.7,29.88,WNW,298,2.0,3.0,63,0.00,,SKC,0.00,0.00,VWS V14.01,2013-04-11 05:37:00,
2013-04-11 01:38:00,68.8,55.7,29.88,WNW,298,1.0,3.0,63,0.00,,SKC,0.00,0.00,VWS V14.01,2013-04-11 05:38:00,
2013-04-11 01:40:00,68.5,55.9,29.88,WNW,298,0.0,3.0,64,0.00,,SKC,0.00,0.00,VWS V14.01,2013-04-11 05:40:00,
2013-04-11 01:42:00,68.1,55.5,29.88,WNW,298,0.0,3.0,64,0.00,,SKC,0.00,0.00,VWS V14.01,2013-04-11 05:42:00,
2013-04-11 01:43:00,67.9,55.3,29.88,WNW,298,0.0,3.0,64,0.00,,SKC,0.00,0.00,VWS V14.01,2013-04-11 05:43:00,
2013-04-11 01:46:00,67.2,55.5,29.88,WNW,298,0.0,3.0,66,0.00,,SKC,0.00,0.00,VWS V14.01,2013-04-11 05:46:00,
2013-04-11 01:47:00,67.0,55.3,29.88,WNW,298,0.0,3.0,66,0.00,,SKC,0.00,0.00,VWS V14.01,2013-04-11 05:47:00,
2013-04-11 01:48:00,67.0,55.7,29.88,WNW,298,0.0,3.0,67,0.00,,SKC,0.00,0.00,VWS V14.01,2013-04-11 05:48:00,
2013-04-11 01:51:00,66.8,55.5,29.88,WNW,298,0.0,3.0,67,0.00,,SKC,0.00,0.00,VWS V14.01,2013-04-11 05:51:00,
2013-04-11 01:52:00,66.8,55.5,29.87,WNW,298,2.0,3.0,67,0.00,,SKC,0.00,0.00,VWS V14.01,2013-04-11 05:52:00,
2013-04-11 01:53:00,66.8,55.5,29.87,WNW,298,1.0,3.0,67,0.00,,SKC,0.00,0.00,VWS V14.01,2013-04-11 05:53:00,
2013-04-11 01:56:00,66.9,55.6,29.87,WNW,298,0.0,3.0,67,0.00,,SKC,0.00,0.00,VWS V14.01,2013-04-11 05:56:00,
2013-04-11 01:58:00,67.1,55.8,29.88,WNW,298,1.0,3.0,67,0.00,,SKC,0.00,0.00,VWS V14.01,2013-04-11 05:58:00,
2013-04-11 02:01:00,67.3,56.0,29.87,WNW,298,2.0,3.0,67,0.00,,SKC,0.00,0.00,VWS V14.01,2013-04-11 06:01:00,
2013-04-11 02:03:00,67.4,56.1,29.87,WNW,298,1.0,2.0,67,0.00,,SKC,0.00,0.00,VWS V14.01,2013-04-11 06:03:00,
2013-04-11 02:04:00,67.5,56.2,29.87,WNW,298,0.0,2.0,67,0.00,,SKC,0.00,0.00,VWS V14.01,2013-04-11 06:04:00,
2013-04-11 02:06:00,67.6,55.8,29.87,WNW,298,0.0,2.0,66,0.00,,SKC,0.00,0.00,VWS V14.01,2013-04-11 06:06:00,
2013-04-11 02:08:00,67.6,55.8,29.87,WNW,298,0.0,2.0,66,0.00,,SKC,0.00,0.00,VWS V14.01,2013-04-11 06:08:00,
2013-04-11 02:09:00,67.6,55.8,29.87,WNW,298,0.0,2.0,66,0.00,,SKC,0.00,0.00,VWS V14.01,2013-04-11 06:09:00,
2013-04-11 02:12:00,67.6,55.8,29.87,WNW,298,0.0,2.0,66,0.00,,SKC,0.00,0.00,VWS V14.01,2013-04-11 06:12:00,
2013-04-11 02:13:00,67.6,55.8,29.87,WNW,298,0.0,2.0,66,0.00,,SKC,0.00,0.00,VWS V14.01,2013-04-11 06:13:00,
2013-04-11 02:14:00,67.6,55.8,29.87,WNW,298,0.0,2.0,66,0.00,,SKC,0.00,0.00,VWS V14.01,2013-04-11 06:14:00,
2013-04-11 02:17:00,67.3,55.6,29.87,WNW,298,0.0,2.0,66,0.00,,SKC,0.00,0.00,VWS V14.01,2013-04-11 06:17:00,
2013-04-11 02:19:00,67.2,55.9,29.86,WNW,298,0.0,2.0,67,0.00,,SKC,0.00,0.00,VWS V14.01,2013-04-11 06:19:00,
2013-04-11 02:22:00,67.0,55.7,29.86,WNW,298,0.0,2.0,67,0.00,,SKC,0.00,0.00,VWS V14.01,2013-04-11 06:22:00,
2013-04-11 02:24:00,67.0,55.7,29.86,WNW,298,1.0,2.0,67,0.00,,SKC,0.00,0.00,VWS V14.01,2013-04-11 06:24:00,
2013-04-11 02:28:00,66.6,55.7,29.85,WNW,298,0.0,2.0,68,0.00,,SKC,0.00,0.00,VWS V14.01,2013-04-11 06:28:00,
2013-04-11 02:29:00,66.5,55.6,29.85,WNW,298,0.0,2.0,68,0.00,,SKC,0.00,0.00,VWS V14.01,2013-04-11 06:29:00,
2013-04-11 02:30:00,66.4,55.5,29.85,WNW,298,0.0,2.0,68,0.00,,SKC,0.00,0.00,VWS V14.01,2013-04-11 06:30:00,
2013-04-11 02:33:00,66.2,55.7,29.85,WNW,298,0.0,2.0,69,0.00,,SKC,0.00,0.00,VWS V14.01,2013-04-11 06:33:00,
2013-04-11 02:34:00,66.1,55.7,29.85,WNW,298,2.0,2.0,69,0.00,,SKC,0.00,0.00,VWS V14.01,2013-04-11 06:34:00,
2013-04-11 02:35:00,66.1,55.7,29.85,WNW,298,1.0,2.0,69,0.00,,SKC,0.00,0.00,VWS V14.01,2013-04-11 06:35:00,
2013-04-11 02:38:00,65.9,55.5,29.85,WNW,298,1.0,2.0,69,0.00,,SKC,0.00,0.00,VWS V14.01,2013-04-11 06:38:00,
2013-04-11 02:39:00,65.9,55.8,29.85,WNW,298,1.0,2.0,70,0.00,,SKC,0.00,0.00,VWS V14.01,2013-04-11 06:39:00,
2013-04-11 02:40:00,65.8,55.8,29.85,WNW,298,0.0,2.0,70,0.00,,SKC,0.00,0.00,VWS V14.01,2013-04-11 06:40:00,
2013-04-11 02:43:00,65.7,55.7,29.85,WNW,298,1.0,2.0,70,0.00,,SKC,0.00,0.00,VWS V14.01,2013-04-11 06:43:00,
2013-04-11 02:44:00,65.5,55.5,29.85,WNW,298,2.0,2.0,70,0.00,,SKC,0.00,0.00,VWS V14.01,2013-04-11 06:44:00,
2013-04-11 02:45:00,65.5,55.5,29.85,WNW,298,1.0,2.0,70,0.00,,SKC,0.00,0.00,VWS V14.01,2013-04-11 06:45:00,
2013-04-11 02:48:00,65.3,55.7,29.85,WNW,298,0.0,3.0,71,0.00,,SKC,0.00,0.00,VWS V14.01,2013-04-11 06:48:00,
2013-04-11 02:49:00,65.3,55.7,29.85,WNW,298,2.0,3.0,71,0.00,,SKC,0.00,0.00,VWS V14.01,2013-04-11 06:49:00,
2013-04-11 02:50:00,65.2,55.6,29.85,WNW,298,2.0,3.0,71,0.00,,SKC,0.00,0.00,VWS V14.01,2013-04-11 06:50:00,
2013-04-11 02:54:00,65.0,55.8,29.85,WNW,298,3.0,3.0,72,0.00,,SKC,0.00,0.00,VWS V14.01,2013-04-11 06:54:00,
2013-04-11 02:55:00,65.0,55.8,29.85,WNW,298,3.0,3.0,72,0.00,,SKC,0.00,0.00,VWS V14.01,2013-04-11 06:55:00,
2013-04-11 02:59:00,65.0,55.8,29.85,WNW,298,1.0,3.0,72,0.00,,SKC,0.00,0.00,VWS V14.01,2013-04-11 06:59:00,
2013-04-11 03:00:00,65.0,55.8,29.85,WNW,298,1.0,3.0,72,0.00,,SKC,0.00,0.00,VWS V14.01,2013-04-11 07:00:00,
2013-04-11 03:04:00,65.1,55.9,29.84,WNW,298,0.0,0.0,72,0.00,,SKC,0.00,0.00,VWS V14.01,2013-04-11 07:04:00,
2013-04-11 03:05:00,65.2,56.0,29.84,WNW,298,0.0,1.0,72,0.00,,SKC,0.00,0.00,VWS V14.01,2013-04-11 07:05:00,
2013-04-11 03:09:00,65.2,55.6,29.85,WNW,298,0.0,1.0,71,0.00,,SKC,0.00,0.00,VWS V14.01,2013-04-11 07:09:00,
2013-04-11 03:10:00,65.2,55.6,29.85,WNW,298,0.0,1.0,71,0.00,,SKC,0.00,0.00,VWS V14.01,2013-04-11 07:10:00,
2013-04-11 03:11:00,65.2,55.6,29.85,WNW,298,0.0,1.0,71,0.00,,SKC,0.00,0.00,VWS V14.01,2013-04-11 07:11:00,
2013-04-11 03:15:00,65.1,55.9,29.85,WNW,298,2.0,3.0,72,0.00,,SKC,0.00,0.00,VWS V14.01,2013-04-11 07:15:00,
2013-04-11 03:16:00,65.1,55.9,29.85,WNW,298,1.0,3.0,72,0.00,,SKC,0.00,0.00,VWS V14.01,2013-04-11 07:16:00,
2013-04-11 03:20:00,64.9,55.7,29.85,WNW,298,0.0,3.0,72,0.00,,SKC,0.00,0.00,VWS V14.01,2013-04-11 07:20:00,
2013-04-11 06:00:00,62.2,55.6,29.85,WNW,292,1.0,4.0,79,0.00,,SKC,0.00,0.00,VWS V14.01,2013-04-11 10:00:00,
2013-04-11 06:47:00,62.2,55.6,29.85,WNW,292,1.0,4.0,79,0.00,,SKC,0.00,0.00,VWS V14.01,2013-04-11 10:47:00,
2013-04-11 06:52:00,61.3,55.4,29.86,WSW,256,0.0,2.0,81,0.00,,SKC,0.00,0.00,VWS V14.01,2013-04-11 10:52:00,
2013-04-11 06:57:00,61.3,55.4,29.86,WSW,256,0.0,2.0,81,0.00,,SKC,0.00,9.00,VWS V14.01,2013-04-11 10:57:00,
2013-04-11 07:02:00,61.1,54.9,29.86,NNE,13,0.0,1.0,80,0.00,,SKC,0.00,14.00,VWS V14.01,2013-04-11 11:02:00,
2013-04-11 07:03:00,61.0,54.8,29.86,North,5,0.0,1.0,80,0.00,,SKC,0.00,16.00,VWS V14.01,2013-04-11 11:03:00,
2013-04-11 07:07:00,60.9,55.4,29.86,NNE,12,0.0,1.0,82,0.00,,SKC,0.00,21.00,VWS V14.01,2013-04-11 11:07:00,
2013-04-11 07:08:00,60.8,55.3,29.86,NNE,12,0.0,1.0,82,0.00,,SKC,0.00,21.00,VWS V14.01,2013-04-11 11:08:00,
2013-04-11 07:12:00,60.7,55.5,29.86,SSW,206,0.0,1.0,83,0.00,,SKC,0.00,28.00,VWS V14.01,2013-04-11 11:12:00,
2013-04-11 07:13:00,60.7,55.5,29.86,SSW,207,0.0,1.0,83,0.00,,SKC,0.00,30.00,VWS V14.01,2013-04-11 11:13:00,
2013-04-11 07:17:00,60.8,55.6,29.86,WSW,244,0.0,1.0,83,0.00,,SKC,0.00,37.00,VWS V14.01,2013-04-11 11:17:00,
2013-04-11 07:18:00,60.8,55.6,29.86,WSW,244,1.0,1.0,83,0.00,,SKC,0.00,39.00,VWS V14.01,2013-04-11 11:18:00,
2013-04-11 07:22:00,60.8,55.3,29.87,West,270,2.0,3.0,82,0.00,,SKC,0.00,42.00,VWS V14.01,2013-04-11 11:22:00,
2013-04-11 07:23:00,60.8,55.3,29.87,West,272,2.0,3.0,82,0.00,,SKC,0.00,44.00,VWS V14.01,2013-04-11 11:23:00,
2013-04-11 07:24:00,60.8,55.3,29.87,West,281,2.0,3.0,82,0.00,,SKC,0.00,46.00,VWS V14.01,2013-04-11 11:24:00,
2013-04-11 07:27:00,60.9,55.4,29.87,WNW,284,0.0,3.0,82,0.00,,SKC,0.00,49.00,VWS V14.01,2013-04-11 11:27:00,
2013-04-11 07:28:00,60.9,55.4,29.87,WNW,284,1.0,3.0,82,0.00,,SKC,0.00,51.00,VWS V14.01,2013-04-11 11:28:00,
2013-04-11 07:29:00,60.9,55.4,29.87,WNW,284,1.0,3.0,82,0.00,,SKC,0.00,53.00,VWS V14.01,2013-04-11 11:29:00,
2013-04-11 07:32:00,61.0,55.5,29.88,WNW,284,0.0,0.0,82,0.00,,SKC,0.00,56.00,VWS V14.01,2013-04-11 11:32:00,
2013-04-11 07:33:00,61.0,55.5,29.88,WNW,284,0.0,0.0,82,0.00,,SKC,0.00,56.00,VWS V14.01,2013-04-11 11:33:00,
2013-04-11 07:34:00,61.1,55.9,29.88,WNW,284,0.0,0.0,83,0.00,,SKC,0.00,63.00,VWS V14.01,2013-04-11 11:34:00,
2013-04-11 07:37:00,61.2,56.0,29.88,WNW,284,0.0,0.0,83,0.00,,SKC,0.00,63.00,VWS V14.01,2013-04-11 11:37:00,
2013-04-11 07:38:00,61.2,56.0,29.88,WNW,284,0.0,0.0,83,0.00,,SKC,0.00,63.00,VWS V14.01,2013-04-11 11:38:00,
2013-04-11 07:39:00,61.3,56.1,29.88,WNW,284,0.0,0.0,83,0.00,,SKC,0.00,67.00,VWS V14.01,2013-04-11 11:39:00,
2013-04-11 07:42:00,61.5,56.0,29.88,WNW,284,0.0,0.0,82,0.00,,SKC,0.00,76.00,VWS V14.01,2013-04-11 11:42:00,
2013-04-11 07:43:00,61.6,56.1,29.88,WNW,284,0.0,0.0,82,0.00,,SKC,0.00,77.00,VWS V14.01,2013-04-11 11:43:00,
2013-04-11 07:44:00,61.6,56.1,29.88,WNW,284,0.0,0.0,82,0.00,,SKC,0.00,77.00,VWS V14.01,2013-04-11 11:44:00,
2013-04-11 07:48:00,61.8,55.9,29.88,WNW,286,0.0,0.0,81,0.00,,SKC,0.00,77.00,VWS V14.01,2013-04-11 11:48:00,
2013-04-11 07:49:00,61.8,55.9,29.88,WNW,286,0.0,0.0,81,0.00,,SKC,0.00,79.00,VWS V14.01,2013-04-11 11:49:00,
2013-04-11 07:50:00,61.9,56.0,29.88,WNW,286,0.0,0.0,81,0.00,,SKC,0.00,81.00,VWS V14.01,2013-04-11 11:50:00,
2013-04-11 07:53:00,62.1,56.2,29.88,ESE,113,0.0,1.0,81,0.00,,SKC,0.00,90.00,VWS V14.01,2013-04-11 11:53:00,
2013-04-11 07:54:00,62.2,56.3,29.88,SSE,161,0.0,1.0,81,0.00,,SKC,0.00,93.00,VWS V14.01,2013-04-11 11:54:00,
2013-04-11 07:55:00,62.2,56.3,29.88,SSE,161,0.0,1.0,81,0.00,,SKC,0.00,105.00,VWS V14.01,2013-04-11 11:55:00,
2013-04-11 07:59:00,62.5,56.6,29.88,WNW,303,0.0,1.0,81,0.00,,SKC,0.00,120.00,VWS V14.01,2013-04-11 11:59:00,
2013-04-11 08:00:00,62.6,56.3,29.88,WNW,303,0.0,1.0,80,0.00,,SKC,0.00,111.00,VWS V14.01,2013-04-11 12:00:00,
2013-04-11 08:04:00,62.9,56.6,29.88,WNW,303,0.0,1.0,80,0.00,,SKC,0.00,98.00,VWS V14.01,2013-04-11 12:04:00,
2013-04-11 08:05:00,63.0,56.7,29.88,WNW,303,0.0,1.0,80,0.00,,SKC,0.00,97.00,VWS V14.01,2013-04-11 12:05:00,
2013-04-11 08:09:00,63.4,57.1,29.89,WNW,303,0.0,1.0,80,0.00,,SKC,0.00,107.00,VWS V14.01,2013-04-11 12:09:00,
2013-04-11 08:10:00,63.5,56.9,29.89,WNW,303,0.0,1.0,79,0.00,,SKC,0.00,134.00,VWS V14.01,2013-04-11 12:10:00,
2013-04-11 08:14:00,63.7,57.4,29.89,WNW,303,0.0,1.0,80,0.00,,SKC,0.00,107.00,VWS V14.01,2013-04-11 12:14:00,
2013-04-11 08:15:00,63.8,57.5,29.89,SW,222,0.0,1.0,80,0.00,,SKC,0.00,109.00,VWS V14.01,2013-04-11 12:15:00,
2013-04-11 08:19:00,64.0,57.0,29.89,SW,222,0.0,1.0,78,0.00,,SKC,0.00,114.00,VWS V14.01,2013-04-11 12:19:00,
2013-04-11 08:20:00,64.0,57.0,29.89,SW,222,0.0,1.0,78,0.00,,SKC,0.00,118.00,VWS V14.01,2013-04-11 12:20:00,
2013-04-11 08:24:00,64.1,57.1,29.89,SW,222,0.0,1.0,78,0.00,,SKC,0.00,127.00,VWS V14.01,2013-04-11 12:24:00,
2013-04-11 08:25:00,64.1,57.1,29.89,SW,222,0.0,1.0,78,0.00,,SKC,0.00,127.00,VWS V14.01,2013-04-11 12:25:00,
2013-04-11 08:29:00,64.1,57.1,29.89,SW,222,0.0,1.0,78,0.00,,SKC,0.00,123.00,VWS V14.01,2013-04-11 12:29:00,
2013-04-11 08:30:00,64.2,56.8,29.89,SW,222,0.0,1.0,77,0.00,,SKC,0.00,121.00,VWS V14.01,2013-04-11 12:30:00,
2013-04-11 08:34:00,64.3,57.0,29.89,SW,227,0.0,0.0,77,0.00,,SKC,0.00,141.00,VWS V14.01,2013-04-11 12:34:00,
2013-04-11 08:36:00,64.3,57.0,29.89,East,94,0.0,0.0,77,0.00,,SKC,0.00,193.00,VWS V14.01,2013-04-11 12:36:00,
2013-04-11 08:39:00,64.5,57.1,29.89,East,94,0.0,0.0,77,0.00,,SKC,0.00,207.00,VWS V14.01,2013-04-11 12:39:00,
2013-04-11 08:40:00,64.5,57.1,29.89,East,94,0.0,0.0,77,0.00,,SKC,0.00,207.00,VWS V14.01,2013-04-11 12:40:00,
2013-04-11 08:41:00,64.6,57.2,29.88,East,94,0.0,0.0,77,0.00,,SKC,0.00,192.00,VWS V14.01,2013-04-11 12:41:00,
2013-04-11 08:42:00,64.8,58.1,29.89,East,94,0.0,0.0,79,0.00,,SKC,0.00,163.00,VWS V14.01,2013-04-11 12:42:00,
2013-04-11 08:44:00,65.1,58.4,29.89,ESE,114,0.0,0.0,79,0.00,,SKC,0.00,121.00,VWS V14.01,2013-04-11 12:44:00,
2013-04-11 08:45:00,65.1,58.4,29.89,NW,311,0.0,0.0,79,0.00,,SKC,0.00,121.00,VWS V14.01,2013-04-11 12:45:00,
2013-04-11 08:46:00,65.2,58.5,29.89,WSW,254,0.0,0.0,79,0.00,,SKC,0.00,134.00,VWS V14.01,2013-04-11 12:46:00,
2013-04-11 08:47:00,65.3,58.6,29.89,SSE,147,0.0,0.0,79,0.00,,SKC,0.00,200.00,VWS V14.01,2013-04-11 12:47:00,
2013-04-11 08:49:00,65.5,58.5,29.89,NNE,23,0.0,0.0,78,0.00,,SKC,0.00,250.00,VWS V14.01,2013-04-11 12:49:00,
2013-04-11 08:50:00,65.5,58.5,29.89,NNE,24,0.0,0.0,78,0.00,,SKC,0.00,250.00,VWS V14.01,2013-04-11 12:50:00,
2013-04-11 08:51:00,65.7,58.3,29.89,NNE,26,0.0,0.0,77,0.00,,SKC,0.00,207.00,VWS V14.01,2013-04-11 12:51:00,
2013-04-11 08:52:00,65.8,58.0,29.89,NNE,26,0.0,0.0,76,0.00,,SKC,0.00,204.00,VWS V14.01,2013-04-11 12:52:00,
2013-04-11 08:55:00,66.1,58.0,29.89,West,267,0.0,0.0,75,0.00,,SKC,0.00,223.00,VWS V14.01,2013-04-11 12:55:00,
2013-04-11 08:56:00,66.3,58.5,29.89,West,267,0.0,0.0,76,0.00,,SKC,0.00,181.00,VWS V14.01,2013-04-11 12:56:00,
2013-04-11 08:57:00,66.3,58.2,29.89,West,267,0.0,0.0,75,0.00,,SKC,0.00,156.00,VWS V14.01,2013-04-11 12:57:00,
2013-04-11 09:00:00,66.5,58.3,29.89,West,267,0.0,0.0,75,0.00,,SKC,0.00,86.00,VWS V14.01,2013-04-11 13:00:00,
2013-04-11 09:01:00,66.6,58.1,29.89,West,267,0.0,0.0,74,0.00,,SKC,0.00,109.00,VWS V14.01,2013-04-11 13:01:00,
2013-04-11 09:03:00,66.7,57.8,29.89,West,267,1.0,1.0,73,0.00,,SKC,0.00,148.00,VWS V14.01,2013-04-11 13:03:00,
2013-04-11 09:05:00,66.8,58.3,29.89,WSW,254,1.0,1.0,74,0.00,,SKC,0.00,188.00,VWS V14.01,2013-04-11 13:05:00,
2013-04-11 09:06:00,66.8,57.9,29.89,WSW,254,0.0,1.0,73,0.00,,SKC,0.00,315.00,VWS V14.01,2013-04-11 13:06:00,
2013-04-11 09:08:00,66.9,58.3,29.89,WSW,254,0.0,1.0,74,0.00,,SKC,0.00,346.00,VWS V14.01,2013-04-11 13:08:00,
2013-04-11 09:10:00,67.0,58.5,29.89,WSW,254,0.0,1.0,74,0.00,,SKC,0.00,352.00,VWS V14.01,2013-04-11 13:10:00,
2013-04-11 09:12:00,67.2,58.3,29.89,WSW,254,0.0,1.0,73,0.00,,SKC,0.00,355.00,VWS V14.01,2013-04-11 13:12:00,
2013-04-11 09:13:00,67.4,58.8,29.89,WSW,254,0.0,1.0,74,0.00,,SKC,0.00,353.00,VWS V14.01,2013-04-11 13:13:00,
2013-04-11 09:16:00,67.6,58.7,29.89,SW,215,0.0,2.0,73,0.00,,SKC,0.00,360.00,VWS V14.01,2013-04-11 13:16:00,
2013-04-11 09:17:00,67.6,58.3,29.89,SSW,213,0.0,2.0,72,0.00,,SKC,0.00,360.00,VWS V14.01,2013-04-11 13:17:00,
2013-04-11 09:18:00,67.7,58.7,29.89,SSE,163,3.0,3.0,73,0.00,,SKC,0.00,360.00,VWS V14.01,2013-04-11 13:18:00,
2013-04-11 09:22:00,67.8,58.5,29.89,SSE,148,1.0,4.0,72,0.00,,SKC,0.00,374.00,VWS V14.01,2013-04-11 13:22:00,
2013-04-11 09:23:00,67.9,58.5,29.88,SE,134,2.0,4.0,72,0.00,,SKC,0.00,383.00,VWS V14.01,2013-04-11 13:23:00,
2013-04-11 09:24:00,68.0,58.7,29.88,SE,134,3.0,4.0,72,0.00,,SKC,0.00,383.00,VWS V14.01,2013-04-11 13:24:00,
2013-04-11 09:27:00,68.2,58.8,29.89,SE,132,2.0,4.0,72,0.00,,SKC,0.00,401.00,VWS V14.01,2013-04-11 13:27:00,
2013-04-11 09:28:00,68.3,58.5,29.89,SE,132,2.0,4.0,71,0.00,,SKC,0.00,401.00,VWS V14.01,2013-04-11 13:28:00,
2013-04-11 09:29:00,68.4,58.6,29.89,SE,132,1.0,4.0,71,0.00,,SKC,0.00,408.00,VWS V14.01,2013-04-11 13:29:00,
2013-04-11 09:32:00,68.4,58.6,29.88,SE,132,2.0,2.0,71,0.00,,SKC,0.00,427.00,VWS V14.01,2013-04-11 13:32:00,
2013-04-11 09:33:00,68.4,58.6,29.88,SE,132,1.0,2.0,71,0.00,,SKC,0.00,432.00,VWS V14.01,2013-04-11 13:33:00,
2013-04-11 09:34:00,68.5,58.7,29.88,East,89,0.0,5.0,71,0.00,,SKC,0.00,431.00,VWS V14.01,2013-04-11 13:34:00,
2013-04-11 09:38:00,69.1,58.9,29.88,ESE,114,1.0,7.0,70,0.00,,SKC,0.00,441.00,VWS V14.01,2013-04-11 13:38:00,
2013-04-11 09:39:00,69.2,58.6,29.88,ESE,115,0.0,7.0,69,0.00,,SKC,0.00,443.00,VWS V14.01,2013-04-11 13:39:00,
2013-04-11 09:43:00,69.6,59.4,29.88,SE,126,4.0,7.0,70,0.00,,SKC,0.00,457.00,VWS V14.01,2013-04-11 13:43:00,
2013-04-11 09:44:00,69.8,59.6,29.88,SE,134,3.0,7.0,70,0.00,,SKC,0.00,468.00,VWS V14.01,2013-04-11 13:44:00,
2013-04-11 09:45:00,69.8,59.2,29.88,SE,135,2.0,7.0,69,0.00,,SKC,0.00,468.00,VWS V14.01,2013-04-11 13:45:00,
2013-04-11 09:48:00,69.9,59.7,29.88,SE,135,3.0,7.0,70,0.00,,SKC,0.00,469.00,VWS V14.01,2013-04-11 13:48:00,
2013-04-11 09:49:00,69.9,59.3,29.88,SE,136,2.0,7.0,69,0.00,,SKC,0.00,473.00,VWS V14.01,2013-04-11 13:49:00,
2013-04-11 09:50:00,70.1,59.9,29.88,SE,136,3.0,7.0,70,0.00,,SKC,0.00,476.00,VWS V14.01,2013-04-11 13:50:00,
2013-04-11 09:53:00,70.1,59.5,29.88,SE,134,5.0,7.0,69,0.00,,SKC,0.00,483.00,VWS V14.01,2013-04-11 13:53:00,
2013-04-11 09:54:00,70.1,59.5,29.88,SE,132,3.0,7.0,69,0.00,,SKC,0.00,483.00,VWS V14.01,2013-04-11 13:54:00,
2013-04-11 09:55:00,70.2,59.6,29.88,SE,126,3.0,7.0,69,0.00,,SKC,0.00,490.00,VWS V14.01,2013-04-11 13:55:00,
2013-04-11 09:58:00,70.4,59.8,29.88,SE,128,4.0,7.0,69,0.00,,SKC,0.00,508.00,VWS V14.01,2013-04-11 13:58:00,
2013-04-11 09:59:00,70.5,59.8,29.88,SE,136,5.0,7.0,69,0.00,,SKC,0.00,508.00,VWS V14.01,2013-04-11 13:59:00,
2013-04-11 10:00:00,70.5,59.8,29.88,SE,138,3.0,7.0,69,0.00,,SKC,0.00,522.00,VWS V14.01,2013-04-11 14:00:00,
2013-04-11 10:04:00,70.4,58.9,29.88,SE,137,2.0,7.0,67,0.00,,SKC,0.00,543.00,VWS V14.01,2013-04-11 14:04:00,
2013-04-11 10:05:00,70.4,58.9,29.88,SE,132,4.0,7.0,67,0.00,,SKC,0.00,526.00,VWS V14.01,2013-04-11 14:05:00,
2013-04-11 10:06:00,70.5,59.4,29.87,SE,131,4.0,7.0,68,0.00,,SKC,0.00,540.00,VWS V14.01,2013-04-11 14:06:00,
2013-04-11 10:09:00,70.7,59.2,29.88,SE,144,5.0,7.0,67,0.00,,SKC,0.00,487.00,VWS V14.01,2013-04-11 14:09:00,
2013-04-11 10:10:00,70.7,59.2,29.88,SSE,147,2.0,7.0,67,0.00,,SKC,0.00,506.00,VWS V14.01,2013-04-11 14:10:00,
2013-04-11 10:11:00,70.6,59.1,29.88,SE,141,3.0,7.0,67,0.00,,SKC,0.00,510.00,VWS V14.01,2013-04-11 14:11:00,
2013-04-11 10:14:00,70.8,59.3,29.87,SE,140,3.0,7.0,67,0.00,,SKC,0.00,540.00,VWS V14.01,2013-04-11 14:14:00,
2013-04-11 10:15:00,70.8,59.3,29.87,SE,140,0.0,7.0,67,0.00,,SKC,0.00,550.00,VWS V14.01,2013-04-11 14:15:00,
2013-04-11 10:16:00,71.0,59.5,29.87,SE,141,1.0,7.0,67,0.00,,SKC,0.00,559.00,VWS V14.01,2013-04-11 14:16:00,
2013-04-11 10:19:00,71.7,59.3,29.87,SE,130,2.0,7.0,65,0.00,,SKC,0.00,492.00,VWS V14.01,2013-04-11 14:19:00,
2013-04-11 10:20:00,71.8,59.4,29.87,ESE,115,4.0,7.0,65,0.00,,SKC,0.00,557.00,VWS V14.01,2013-04-11 14:20:00,
2013-04-11 10:22:00,72.2,59.4,29.87,East,98,2.0,7.0,64,0.00,,SKC,0.00,578.00,VWS V14.01,2013-04-11 14:22:00,
2013-04-11 10:25:00,73.3,60.4,29.87,East,98,0.0,7.0,64,0.00,,SKC,0.00,610.00,VWS V14.01,2013-04-11 14:25:00,
2013-04-11 10:27:00,74.3,60.5,29.87,East,98,2.0,7.0,62,0.00,,SKC,0.00,594.00,VWS V14.01,2013-04-11 14:27:00,
2013-04-11 10:30:00,74.0,59.7,29.87,ESE,105,3.0,7.0,61,0.00,,SKC,0.00,628.00,VWS V14.01,2013-04-11 14:30:00,
2013-04-11 10:31:00,73.6,59.3,29.87,ESE,105,0.0,7.0,61,0.00,,SKC,0.00,628.00,VWS V14.01,2013-04-11 14:31:00,
2013-04-11 10:33:00,73.5,59.7,29.87,ESE,105,1.0,4.0,62,0.00,,SKC,0.00,596.00,VWS V14.01,2013-04-11 14:33:00,
2013-04-11 10:35:00,73.1,59.8,29.87,SSE,164,1.0,4.0,63,0.00,,SKC,0.00,606.00,VWS V14.01,2013-04-11 14:35:00,
2013-04-11 10:37:00,73.9,60.5,29.87,SSE,164,4.0,4.0,63,0.00,,SKC,0.00,605.00,VWS V14.01,2013-04-11 14:37:00,
2013-04-11 10:38:00,74.3,60.5,29.87,SSE,150,3.0,4.0,62,0.00,,SKC,0.00,615.00,VWS V14.01,2013-04-11 14:38:00,
2013-04-11 10:40:00,74.3,59.5,29.87,SE,139,4.0,8.0,60,0.00,,SKC,0.00,635.00,VWS V14.01,2013-04-11 14:40:00,
2013-04-11 10:42:00,73.9,59.6,29.87,SE,126,1.0,8.0,61,0.00,,SKC,0.00,640.00,VWS V14.01,2013-04-11 14:42:00,
2013-04-11 10:43:00,73.8,59.1,29.87,SE,126,1.0,8.0,60,0.00,,SKC,0.00,638.00,VWS V14.01,2013-04-11 14:43:00,
2013-04-11 10:45:00,73.7,59.9,29.87,SE,132,3.0,8.0,62,0.00,,SKC,0.00,643.00,VWS V14.01,2013-04-11 14:45:00,
2013-04-11 10:47:00,73.9,59.6,29.87,SE,129,6.0,8.0,61,0.00,,SKC,0.00,650.00,VWS V14.01,2013-04-11 14:47:00,
2013-04-11 10:48:00,73.9,59.6,29.87,SE,128,4.0,8.0,61,0.00,,SKC,0.00,640.00,VWS V14.01,2013-04-11 14:48:00,
2013-04-11 10:50:00,73.9,59.2,29.87,ESE,121,4.0,8.0,60,0.00,,SKC,0.00,656.00,VWS V14.01,2013-04-11 14:50:00,
2013-04-11 10:51:00,73.9,59.2,29.87,ESE,115,3.0,8.0,60,0.00,,SKC,0.00,663.00,VWS V14.01,2013-04-11 14:51:00,
2013-04-11 10:53:00,73.7,59.0,29.87,ESE,115,1.0,8.0,60,0.00,,SKC,0.00,638.00,VWS V14.01,2013-04-11 14:53:00,
2013-04-11 10:55:00,73.9,59.6,29.87,SSW,192,0.0,8.0,61,0.00,,SKC,0.00,664.00,VWS V14.01,2013-04-11 14:55:00,
2013-04-11 10:57:00,74.1,59.3,29.87,SE,137,3.0,8.0,60,0.00,,SKC,0.00,647.00,VWS V14.01,2013-04-11 14:57:00,
2013-04-11 10:58:00,74.3,59.5,29.87,SSE,154,3.0,8.0,60,0.00,,SKC,0.00,635.00,VWS V14.01,2013-04-11 14:58:00,
2013-04-11 10:59:00,74.3,60.0,29.87,SSE,162,3.0,8.0,61,0.00,,SKC,0.00,635.00,VWS V14.01,2013-04-11 14:59:00,
2013-04-11 11:01:00,74.6,59.8,29.87,SE,134,4.0,5.0,60,0.00,,SKC,0.00,654.00,VWS V14.01,2013-04-11 15:01:00,
2013-04-11 11:02:00,74.7,59.9,29.87,SE,134,5.0,5.0,60,0.00,,SKC,0.00,663.00,VWS V14.01,2013-04-11 15:02:00,
2013-04-11 11:03:00,75.1,60.3,29.87,SE,135,4.0,5.0,60,0.00,,SKC,0.00,675.00,VWS V14.01,2013-04-11 15:03:00,
2013-04-11 11:04:00,75.1,60.3,29.87,SE,140,3.0,5.0,60,0.00,,SKC,0.00,675.00,VWS V14.01,2013-04-11 15:04:00,
2013-04-11 11:06:00,75.3,59.5,29.86,SE,132,8.0,8.0,58,0.00,,SKC,0.00,691.00,VWS V14.01,2013-04-11 15:06:00,
2013-04-11 11:07:00,75.3,59.5,29.86,ESE,119,9.0,11.0,58,0.00,,SKC,0.00,608.00,VWS V14.01,2013-04-11 15:07:00,
2013-04-11 11:08:00,75.3,59.0,29.86,ESE,113,7.0,11.0,57,0.00,,SKC,0.00,677.00,VWS V14.01,2013-04-11 15:08:00,
2013-04-11 11:09:00,75.4,59.6,29.86,ESE,119,7.0,11.0,58,0.00,,SKC,0.00,677.00,VWS V14.01,2013-04-11 15:09:00,
2013-04-11 11:12:00,75.4,59.6,29.86,South,184,3.0,11.0,58,0.00,,SKC,0.00,694.00,VWS V14.01,2013-04-11 15:12:00,
2013-04-11 11:14:00,75.5,59.2,29.86,SSW,198,3.0,11.0,57,0.00,,SKC,0.00,756.00,VWS V14.01,2013-04-11 15:14:00,
2013-04-11 11:17:00,75.5,59.2,29.86,SE,131,3.0,11.0,57,0.00,,SKC,0.00,773.00,VWS V14.01,2013-04-11 15:17:00,
2013-04-11 11:19:00,75.6,59.8,29.86,SE,128,6.0,11.0,58,0.00,,SKC,0.00,777.00,VWS V14.01,2013-04-11 15:19:00,
2013-04-11 11:22:00,75.9,60.1,29.86,SE,131,8.0,13.0,58,0.00,,SKC,0.00,737.00,VWS V14.01,2013-04-11 15:22:00,
2013-04-11 11:24:00,75.9,60.1,29.86,ESE,115,12.0,15.0,58,0.00,,SKC,0.00,708.00,VWS V14.01,2013-04-11 15:24:00,
2013-04-11 11:27:00,75.5,59.2,29.86,South,174,3.0,15.0,57,0.00,,SKC,0.00,708.00,VWS V14.01,2013-04-11 15:27:00,
2013-04-11 11:29:00,75.6,59.8,29.86,South,181,5.0,15.0,58,0.00,,SKC,0.00,708.00,VWS V14.01,2013-04-11 15:29:00,
2013-04-11 11:32:00,75.8,60.5,29.86,SE,131,7.0,9.0,59,0.00,,SKC,0.00,708.00,VWS V14.01,2013-04-11 15:32:00,
2013-04-11 11:33:00,76.0,60.7,29.86,SE,142,7.0,9.0,59,0.00,,SKC,0.00,689.00,VWS V14.01,2013-04-11 15:33:00,
2013-04-11 11:34:00,76.0,60.2,29.86,SSE,152,5.0,9.0,58,0.00,,SKC,0.00,689.00,VWS V14.01,2013-04-11 15:34:00,
2013-04-11 11:37:00,76.3,60.0,29.86,SE,144,11.0,15.0,57,0.00,,SKC,0.00,689.00,VWS V14.01,2013-04-11 15:37:00,
2013-04-11 11:39:00,76.2,59.9,29.86,ESE,117,9.0,15.0,57,0.00,,SKC,0.00,742.00,VWS V14.01,2013-04-11 15:39:00,
2013-04-11 11:42:00,75.9,59.6,29.85,SE,140,8.0,15.0,57,0.00,,SKC,0.00,717.00,VWS V14.01,2013-04-11 15:42:00,
2013-04-11 11:44:00,75.8,60.0,29.85,SE,128,7.0,15.0,58,0.00,,SKC,0.00,598.00,VWS V14.01,2013-04-11 15:44:00,
2013-04-11 11:45:00,76.0,60.2,29.85,SE,130,8.0,15.0,58,0.00,,SKC,0.00,587.00,VWS V14.01,2013-04-11 15:45:00,
2013-04-11 11:48:00,76.4,60.5,29.85,East,88,7.0,15.0,58,0.00,,SKC,0.00,585.00,VWS V14.01,2013-04-11 15:48:00,
2013-04-11 11:49:00,76.6,60.2,29.85,SSW,198,7.0,15.0,57,0.00,,SKC,0.00,585.00,VWS V14.01,2013-04-11 15:49:00,
2013-04-11 11:50:00,76.7,60.3,29.85,South,173,5.0,15.0,57,0.00,,SKC,0.00,693.00,VWS V14.01,2013-04-11 15:50:00,
2013-04-11 11:53:00,76.9,60.0,29.85,SSW,202,2.0,15.0,56,0.00,,SKC,0.00,666.00,VWS V14.01,2013-04-11 15:53:00,
2013-04-11 11:54:00,76.7,59.3,29.85,South,185,4.0,15.0,55,0.00,,SKC,0.00,666.00,VWS V14.01,2013-04-11 15:54:00,
2013-04-11 11:55:00,76.6,59.2,29.85,South,177,2.0,15.0,55,0.00,,SKC,0.00,666.00,VWS V14.01,2013-04-11 15:55:00,
2013-04-11 11:58:00,76.6,60.2,29.85,SE,134,6.0,15.0,57,0.00,,SKC,0.00,693.00,VWS V14.01,2013-04-11 15:58:00,
2013-04-11 11:59:00,76.6,59.8,29.84,East,100,3.0,15.0,56,0.00,,SKC,0.00,889.00,VWS V14.01,2013-04-11 15:59:00,
2013-04-11 12:00:00,76.7,59.8,29.84,SSE,167,2.0,15.0,56,0.00,,SKC,0.00,882.00,VWS V14.01,2013-04-11 16:00:00,
2013-04-11 12:03:00,77.5,60.1,29.84,ESE,119,10.0,15.0,55,0.00,,SKC,0.00,824.00,VWS V14.01,2013-04-11 16:03:00,
2013-04-11 12:05:00,77.5,60.1,29.84,South,173,8.0,15.0,55,0.00,,SKC,0.00,819.00,VWS V14.01,2013-04-11 16:05:00,
2013-04-11 12:06:00,77.5,59.6,29.84,SE,124,9.0,15.0,54,0.00,,SKC,0.00,879.00,VWS V14.01,2013-04-11 16:06:00,
2013-04-11 12:08:00,77.8,60.9,29.84,SE,133,12.0,15.0,56,0.00,,SKC,0.00,867.00,VWS V14.01,2013-04-11 16:08:00,
2013-04-11 12:10:00,77.9,59.4,29.84,SE,145,13.0,15.0,53,0.00,,SKC,0.00,816.00,VWS V14.01,2013-04-11 16:10:00,
2013-04-11 12:11:00,77.8,59.3,29.84,SE,137,11.0,15.0,53,0.00,,SKC,0.00,816.00,VWS V14.01,2013-04-11 16:11:00,
2013-04-11 12:13:00,77.8,59.8,29.84,SSE,150,8.0,15.0,54,0.00,,SKC,0.00,819.00,VWS V14.01,2013-04-11 16:13:00,
2013-04-11 12:15:00,78.0,60.0,29.84,SSE,148,9.0,17.0,54,0.00,,SKC,0.00,796.00,VWS V14.01,2013-04-11 16:15:00,
2013-04-11 12:16:00,78.0,60.0,29.83,SE,133,14.0,17.0,54,0.00,,SKC,0.00,802.00,VWS V14.01,2013-04-11 16:16:00,
2013-04-11 12:19:00,77.9,59.9,29.83,SSE,148,6.0,17.0,54,0.00,,SKC,0.00,729.00,VWS V14.01,2013-04-11 16:19:00,
2013-04-11 12:20:00,78.1,59.6,29.83,SSW,206,5.0,17.0,53,0.00,,SKC,0.00,687.00,VWS V14.01,2013-04-11 16:20:00,
2013-04-11 12:21:00,78.1,58.5,29.83,SE,124,6.0,17.0,51,0.00,,SKC,0.00,745.00,VWS V14.01,2013-04-11 16:21:00,
2013-04-11 12:24:00,78.5,60.0,29.83,SE,140,5.0,17.0,53,0.00,,SKC,0.00,802.00,VWS V14.01,2013-04-11 16:24:00,
2013-04-11 12:26:00,78.7,59.1,29.83,SW,225,5.0,17.0,51,0.00,,SKC,0.00,786.00,VWS V14.01,2013-04-11 16:26:00,
2013-04-11 12:29:00,78.8,58.6,29.83,SE,143,8.0,17.0,50,0.00,,SKC,0.00,770.00,VWS V14.01,2013-04-11 16:29:00,
2013-04-11 12:31:00,78.8,58.0,29.83,SE,141,5.0,17.0,49,0.00,,SKC,0.00,747.00,VWS V14.01,2013-04-11 16:31:00,
2013-04-11 12:34:00,78.6,57.9,29.83,SSW,197,6.0,12.0,49,0.00,,SKC,0.00,893.00,VWS V14.01,2013-04-11 16:34:00,
2013-04-11 12:36:00,79.1,58.3,29.83,SSE,163,6.0,12.0,49,0.00,,SKC,0.00,884.00,VWS V14.01,2013-04-11 16:36:00,
2013-04-11 12:37:00,79.2,58.4,29.83,SE,143,8.0,12.0,49,0.00,,SKC,0.00,884.00,VWS V14.01,2013-04-11 16:37:00,
2013-04-11 12:39:00,79.4,58.0,29.82,SSE,155,7.0,14.0,48,0.00,,SKC,0.00,935.00,VWS V14.01,2013-04-11 16:39:00,
2013-04-11 12:41:00,79.6,57.0,29.82,SW,233,7.0,14.0,46,0.00,,SKC,0.00,932.00,VWS V14.01,2013-04-11 16:41:00,
2013-04-11 12:42:00,79.6,57.6,29.82,SE,130,10.0,14.0,47,0.00,,SKC,0.00,949.00,VWS V14.01,2013-04-11 16:42:00,
2013-04-11 12:44:00,79.9,57.9,29.82,SW,225,9.0,14.0,47,0.00,,SKC,0.00,914.00,VWS V14.01,2013-04-11 16:44:00,
2013-04-11 12:46:00,79.9,59.0,29.82,SE,140,9.0,14.0,49,0.00,,SKC,0.00,770.00,VWS V14.01,2013-04-11 16:46:00,
2013-04-11 12:47:00,80.0,59.1,29.82,SE,133,12.0,14.0,49,0.00,,SKC,0.00,758.00,VWS V14.01,2013-04-11 16:47:00,
2013-04-11 12:48:00,80.0,58.6,29.81,SE,130,13.0,16.0,48,0.00,,SKC,0.00,675.00,VWS V14.01,2013-04-11 16:48:00,
2013-04-11 12:50:00,79.9,58.5,29.82,South,184,4.0,16.0,48,0.00,,SKC,0.00,504.00,VWS V14.01,2013-04-11 16:50:00,
2013-04-11 12:52:00,79.4,57.4,29.82,SSW,213,9.0,16.0,47,0.00,,SKC,0.00,603.00,VWS V14.01,2013-04-11 16:52:00,
2013-04-11 12:53:00,78.9,57.0,29.82,SW,223,6.0,16.0,47,0.00,,SKC,0.00,599.00,VWS V14.01,2013-04-11 16:53:00,
2013-04-11 12:55:00,79.0,58.2,29.82,South,186,5.0,16.0,49,0.00,,SKC,0.00,874.00,VWS V14.01,2013-04-11 16:55:00,
2013-04-11 12:57:00,79.4,58.0,29.82,SSE,168,3.0,16.0,48,0.00,,SKC,0.00,909.00,VWS V14.01,2013-04-11 16:57:00,
2013-04-11 12:58:00,79.7,60.0,29.82,SW,219,10.0,16.0,51,0.00,,SKC,0.00,983.00,VWS V14.01,2013-04-11 16:58:00,
2013-04-11 13:00:00,80.0,58.6,29.82,South,173,4.0,16.0,48,0.00,,SKC,0.00,874.00,VWS V14.01,2013-04-11 17:00:00,
2013-04-11 13:02:00,80.3,58.2,29.81,SE,136,5.0,7.0,47,0.00,,SKC,0.00,694.00,VWS V14.01,2013-04-11 17:02:00,
2013-04-11 13:03:00,80.4,58.3,29.81,ESE,103,11.0,12.0,47,0.00,,SKC,0.00,694.00,VWS V14.01,2013-04-11 17:03:00,
2013-04-11 13:05:00,80.4,58.3,29.81,SSE,167,7.0,12.0,47,0.00,,SKC,0.00,944.00,VWS V14.01,2013-04-11 17:05:00,
2013-04-11 13:07:00,80.0,58.0,29.82,SSW,193,8.0,14.0,47,0.00,,SKC,0.00,953.00,VWS V14.01,2013-04-11 17:07:00,
2013-04-11 13:09:00,79.5,58.1,29.81,SSW,213,7.0,14.0,48,0.00,,SKC,0.00,900.00,VWS V14.01,2013-04-11 17:09:00,
2013-04-11 13:10:00,79.4,58.0,29.81,SSE,158,5.0,14.0,48,0.00,,SKC,0.00,954.00,VWS V14.01,2013-04-11 17:10:00,
2013-04-11 13:12:00,79.4,58.0,29.81,South,172,7.0,14.0,48,0.00,,SKC,0.00,891.00,VWS V14.01,2013-04-11 17:12:00,
2013-04-11 13:13:00,79.4,58.0,29.81,SSE,167,7.0,14.0,48,0.00,,SKC,0.00,891.00,VWS V14.01,2013-04-11 17:13:00,
2013-04-11 13:14:00,79.3,57.3,29.81,SSE,150,9.0,14.0,47,0.00,,SKC,0.00,949.00,VWS V14.01,2013-04-11 17:14:00,
2013-04-11 13:16:00,79.4,57.4,29.81,SE,146,5.0,14.0,47,0.00,,SKC,0.00,965.00,VWS V14.01,2013-04-11 17:16:00,
2013-04-11 13:17:00,79.6,57.6,29.81,SE,131,12.0,16.0,47,0.00,,SKC,0.00,911.00,VWS V14.01,2013-04-11 17:17:00,
2013-04-11 13:18:00,79.7,57.7,29.81,ESE,119,12.0,16.0,47,0.00,,SKC,0.00,911.00,VWS V14.01,2013-04-11 17:18:00,
2013-04-11 13:19:00,79.8,57.8,29.81,SE,141,11.0,18.0,47,0.00,,SKC,0.00,896.00,VWS V14.01,2013-04-11 17:19:00,
2013-04-11 13:22:00,79.7,57.7,29.81,South,174,6.0,18.0,47,0.00,,SKC,0.00,935.00,VWS V14.01,2013-04-11 17:22:00,
2013-04-11 13:23:00,79.7,58.3,29.81,SSW,197,9.0,18.0,48,0.00,,SKC,0.00,914.00,VWS V14.01,2013-04-11 17:23:00,
2013-04-11 13:24:00,79.8,58.4,29.81,SE,136,13.0,18.0,48,0.00,,SKC,0.00,933.00,VWS V14.01,2013-04-11 17:24:00,
2013-04-11 13:28:00,80.3,58.2,29.81,South,176,7.0,18.0,47,0.00,,SKC,0.00,949.00,VWS V14.01,2013-04-11 17:28:00,
2013-04-11 13:29:00,80.5,59.0,29.81,South,184,7.0,18.0,48,0.00,,SKC,0.00,939.00,VWS V14.01,2013-04-11 17:29:00,
2013-04-11 13:33:00,80.1,57.5,29.80,South,171,3.0,14.0,46,0.00,,SKC,0.00,884.00,VWS V14.01,2013-04-11 17:33:00,
2013-04-11 13:34:00,80.0,58.0,29.80,South,181,9.0,14.0,47,0.00,,SKC,0.00,925.00,VWS V14.01,2013-04-11 17:34:00,
2013-04-11 13:38:00,80.1,59.2,29.80,SE,126,5.0,14.0,49,0.00,,SKC,0.00,893.00,VWS V14.01,2013-04-11 17:38:00,
2013-04-11 13:40:00,80.1,58.1,29.80,SSE,155,13.0,16.0,47,0.00,,SKC,0.00,905.00,VWS V14.01,2013-04-11 17:40:00,
2013-04-11 13:43:00,80.0,58.6,29.80,SE,134,8.0,16.0,48,0.00,,SKC,0.00,907.00,VWS V14.01,2013-04-11 17:43:00,
2013-04-11 13:44:00,80.1,58.1,29.80,SSE,153,7.0,16.0,47,0.00,,SKC,0.00,907.00,VWS V14.01,2013-04-11 17:44:00,
2013-04-11 13:45:00,80.4,58.3,29.80,SE,140,5.0,16.0,47,0.00,,SKC,0.00,893.00,VWS V14.01,2013-04-11 17:45:00,
2013-04-11 13:48:00,80.6,57.9,29.80,SSE,165,5.0,16.0,46,0.00,,SKC,0.00,854.00,VWS V14.01,2013-04-11 17:48:00,
2013-04-11 13:49:00,80.4,57.8,29.80,SSW,211,3.0,16.0,46,0.00,,SKC,0.00,923.00,VWS V14.01,2013-04-11 17:49:00,
2013-04-11 13:50:00,80.3,57.7,29.80,SE,140,9.0,16.0,46,0.00,,SKC,0.00,949.00,VWS V14.01,2013-04-11 17:50:00,
2013-04-11 13:54:00,80.4,58.3,29.79,SE,146,14.0,22.0,47,0.00,,SKC,0.00,963.00,VWS V14.01,2013-04-11 17:54:00,
2013-04-11 13:55:00,80.5,58.4,29.79,SSE,163,6.0,22.0,47,0.00,,SKC,0.00,970.00,VWS V14.01,2013-04-11 17:55:00,
2013-04-11 13:58:00,81.0,57.7,29.79,SE,140,7.0,22.0,45,0.00,,SKC,0.00,969.00,VWS V14.01,2013-04-11 17:58:00,
2013-04-11 13:59:00,81.0,57.7,29.79,SW,219,13.0,22.0,45,0.00,,SKC,0.00,960.00,VWS V14.01,2013-04-11 17:59:00,
2013-04-11 14:00:00,81.0,57.1,29.79,SW,219,9.0,22.0,44,0.00,,SKC,0.00,960.00,VWS V14.01,2013-04-11 18:00:00,
2013-04-11 14:04:00,81.0,57.1,29.79,SSW,199,19.0,19.0,44,0.00,,SKC,0.00,914.00,VWS V14.01,2013-04-11 18:04:00,
2013-04-11 14:05:00,80.9,57.0,29.79,SSE,150,8.0,19.0,44,0.00,,SKC,0.00,891.00,VWS V14.01,2013-04-11 18:05:00,
2013-04-11 14:09:00,80.7,58.0,29.79,ESE,121,11.0,19.0,46,0.00,,SKC,0.00,914.00,VWS V14.01,2013-04-11 18:09:00,
2013-04-11 14:10:00,80.7,58.0,29.79,SE,144,13.0,19.0,46,0.00,,SKC,0.00,919.00,VWS V14.01,2013-04-11 18:10:00,
2013-04-11 14:14:00,80.2,57.6,29.78,SE,140,15.0,19.0,46,0.00,,SKC,0.00,905.00,VWS V14.01,2013-04-11 18:14:00,
2013-04-11 14:15:00,80.3,57.7,29.78,SSE,167,10.0,22.0,46,0.00,,SKC,0.00,916.00,VWS V14.01,2013-04-11 18:15:00,
2013-04-11 14:19:00,80.7,58.0,29.78,SE,134,14.0,22.0,46,0.00,,SKC,0.00,837.00,VWS V14.01,2013-04-11 18:19:00,
2013-04-11 14:20:00,80.7,58.0,29.78,SE,136,15.0,22.0,46,0.00,,SKC,0.00,886.00,VWS V14.01,2013-04-11 18:20:00,
2013-04-11 18:20:00,78.2,56.3,29.73,SSW,206,7.0,16.0,47,0.00,,SKC,0.00,148.00,VWS V14.01,2013-04-11 22:20:00,
2013-04-11 18:21:00,78.2,56.3,29.73,SSW,201,7.0,16.0,47,0.00,,SKC,0.00,142.00,VWS V14.01,2013-04-11 22:21:00,
2013-04-11 18:25:00,77.9,56.7,29.73,SW,216,0.0,16.0,48,0.00,,SKC,0.00,137.00,VWS V14.01,2013-04-11 22:25:00,
2013-04-11 18:26:00,77.9,56.7,29.73,SSW,207,2.0,16.0,48,0.00,,SKC,0.00,137.00,VWS V14.01,2013-04-11 22:26:00,
2013-04-11 18:30:00,77.8,56.0,29.73,SSW,194,7.0,16.0,47,0.00,,SKC,0.00,132.00,VWS V14.01,2013-04-11 22:30:00,
2013-04-11 18:31:00,77.8,56.0,29.73,SSW,204,10.0,16.0,47,0.00,,SKC,0.00,132.00,VWS V14.01,2013-04-11 22:31:00,
2013-04-11 18:32:00,77.7,55.9,29.73,SW,216,2.0,7.0,47,0.00,,SKC,0.00,128.00,VWS V14.01,2013-04-11 22:32:00,
2013-04-11 18:36:00,77.7,55.9,29.73,SW,214,6.0,15.0,47,0.00,,SKC,0.00,127.00,VWS V14.01,2013-04-11 22:36:00,
2013-04-11 18:37:00,77.7,56.5,29.72,SSE,162,3.0,15.0,48,0.00,,SKC,0.00,125.00,VWS V14.01,2013-04-11 22:37:00,
2013-04-11 18:38:00,77.7,56.5,29.72,SSE,163,2.0,15.0,48,0.00,,SKC,0.00,130.00,VWS V14.01,2013-04-11 22:38:00,
2013-04-11 18:42:00,77.7,55.9,29.72,SSE,165,4.0,15.0,47,0.00,,SKC,0.00,121.00,VWS V14.01,2013-04-11 22:42:00,
2013-04-11 18:43:00,77.7,55.9,29.72,SE,138,3.0,15.0,47,0.00,,SKC,0.00,111.00,VWS V14.01,2013-04-11 22:43:00,
2013-04-11 18:44:00,77.7,56.5,29.72,South,182,8.0,15.0,48,0.00,,SKC,0.00,107.00,VWS V14.01,2013-04-11 22:44:00,
2013-04-11 18:47:00,77.6,55.8,29.72,SSE,147,8.0,15.0,47,0.00,,SKC,0.00,98.00,VWS V14.01,2013-04-11 22:47:00,
2013-04-11 18:48:00,77.6,55.8,29.72,South,169,4.0,15.0,47,0.00,,SKC,0.00,90.00,VWS V14.01,2013-04-11 22:48:00,
2013-04-11 18:49:00,77.6,55.8,29.73,South,187,6.0,15.0,47,0.00,,SKC,0.00,86.00,VWS V14.01,2013-04-11 22:49:00,
2013-04-11 18:52:00,77.6,55.8,29.72,SSW,210,7.0,15.0,47,0.00,,SKC,0.00,77.00,VWS V14.01,2013-04-11 22:52:00,
2013-04-11 18:53:00,77.6,55.8,29.72,SSW,212,11.0,15.0,47,0.00,,SKC,0.00,76.00,VWS V14.01,2013-04-11 22:53:00,
2013-04-11 18:54:00,77.6,55.8,29.72,SW,215,1.0,15.0,47,0.00,,SKC,0.00,74.00,VWS V14.01,2013-04-11 22:54:00,
2013-04-11 18:58:00,77.4,55.6,29.73,SSW,209,2.0,15.0,47,0.00,,SKC,0.00,62.00,VWS V14.01,2013-04-11 22:58:00,
2013-04-11 18:59:00,77.4,56.2,29.73,SW,225,7.0,15.0,48,0.00,,SKC,0.00,62.00,VWS V14.01,2013-04-11 22:59:00,
2013-04-11 19:03:00,77.4,56.2,29.72,SSW,210,8.0,11.0,48,0.00,,SKC,0.00,51.00,VWS V14.01,2013-04-11 23:03:00,
2013-04-11 19:04:00,77.4,56.2,29.72,SSW,204,9.0,15.0,48,0.00,,SKC,0.00,51.00,VWS V14.01,2013-04-11 23:04:00,
2013-04-11 19:05:00,77.4,56.2,29.72,SSE,148,5.0,15.0,48,0.00,,SKC,0.00,49.00,VWS V14.01,2013-04-11 23:05:00,
2013-04-11 19:08:00,77.2,56.0,29.73,SSE,157,7.0,15.0,48,0.00,,SKC,0.00,40.00,VWS V14.01,2013-04-11 23:08:00,
2013-04-11 19:09:00,77.1,55.9,29.72,SSW,211,5.0,15.0,48,0.00,,SKC,0.00,40.00,VWS V14.01,2013-04-11 23:09:00,
2013-04-11 19:10:00,77.1,55.9,29.72,SSE,164,4.0,15.0,48,0.00,,SKC,0.00,40.00,VWS V14.01,2013-04-11 23:10:00,
2013-04-11 19:14:00,77.1,55.9,29.73,WSW,245,9.0,15.0,48,0.00,,SKC,0.00,35.00,VWS V14.01,2013-04-11 23:14:00,
2013-04-11 19:15:00,77.1,56.5,29.73,South,175,4.0,15.0,49,0.00,,SKC,0.00,35.00,VWS V14.01,2013-04-11 23:15:00,
2013-04-11 19:19:00,77.0,56.4,29.72,South,182,3.0,15.0,49,0.00,,SKC,0.00,32.00,VWS V14.01,2013-04-11 23:19:00,
2013-04-11 19:20:00,77.0,56.4,29.72,SSW,203,7.0,15.0,49,0.00,,SKC,0.00,30.00,VWS V14.01,2013-04-11 23:20:00,
2013-04-11 19:25:00,76.9,56.3,29.72,SW,222,4.0,15.0,49,0.00,,SKC,0.00,25.00,VWS V14.01,2013-04-11 23:25:00,
2013-04-11 19:26:00,76.8,56.2,29.72,SSW,196,7.0,15.0,49,0.00,,SKC,0.00,23.00,VWS V14.01,2013-04-11 23:26:00,
2013-04-11 19:30:00,76.6,56.6,29.73,SW,225,4.0,15.0,50,0.00,,SKC,0.00,19.00,VWS V14.01,2013-04-11 23:30:00,
2013-04-11 19:31:00,76.6,56.6,29.73,South,182,6.0,15.0,50,0.00,,SKC,0.00,18.00,VWS V14.01,2013-04-11 23:31:00,
2013-04-11 19:35:00,76.5,56.5,29.72,SSW,194,4.0,12.0,50,0.00,,SKC,0.00,14.00,VWS V14.01,2013-04-11 23:35:00,
2013-04-11 19:36:00,76.5,56.5,29.72,SSW,207,3.0,12.0,50,0.00,,SKC,0.00,14.00,VWS V14.01,2013-04-11 23:36:00,
2013-04-11 19:41:00,76.4,57.0,29.72,SSW,196,9.0,12.0,51,0.00,,SKC,0.00,7.00,VWS V14.01,2013-04-11 23:41:00,
2013-04-11 19:42:00,76.4,57.0,29.73,SSW,211,3.0,12.0,51,0.00,,SKC,0.00,7.00,VWS V14.01,2013-04-11 23:42:00,
2013-04-11 19:43:00,76.3,56.9,29.73,SSW,210,7.0,12.0,51,0.00,,SKC,0.00,5.00,VWS V14.01,2013-04-11 23:43:00,
2013-04-11 19:46:00,76.2,56.8,29.73,SW,226,7.0,12.0,51,0.00,,SKC,0.00,0.00,VWS V14.01,2013-04-11 23:46:00,
2013-04-11 19:48:00,76.2,56.8,29.73,South,172,6.0,12.0,51,0.00,,SKC,0.00,0.00,VWS V14.01,2013-04-11 23:48:00,
2013-04-11 19:52:00,76.1,57.2,29.73,South,175,0.0,12.0,52,0.00,,SKC,0.00,0.00,VWS V14.01,2013-04-11 23:52:00,
2013-04-11 19:53:00,76.0,57.1,29.73,SW,215,11.0,12.0,52,0.00,,SKC,0.00,0.00,VWS V14.01,2013-04-11 23:53:00,
2013-04-11 19:54:00,76.0,57.1,29.72,SW,219,7.0,12.0,52,0.00,,SKC,0.00,0.00,VWS V14.01,2013-04-11 23:54:00,
2013-04-11 19:57:00,76.2,57.3,29.73,SSW,213,3.0,12.0,52,0.00,,SKC,0.00,0.00,VWS V14.01,2013-04-11 23:57:00,
2013-04-11 19:59:00,76.1,57.2,29.73,WSW,255,8.0,12.0,52,0.00,,SKC,0.00,0.00,VWS V14.01,2013-04-11 23:59:00,
2013-04-11 20:02:00,76.1,57.2,29.73,WSW,244,3.0,8.0,52,0.00,,SKC,0.00,0.00,VWS V14.01,2013-04-12 00:02:00,
2013-04-11 20:04:00,76.0,57.1,29.72,SSW,196,4.0,8.0,52,0.00,,SKC,0.00,0.00,VWS V14.01,2013-04-12 00:04:00,
2013-04-11 20:05:00,75.9,57.0,29.72,SW,215,4.0,8.0,52,0.00,,SKC,0.00,0.00,VWS V14.01,2013-04-12 00:05:00,
2013-04-11 20:08:00,75.9,57.0,29.72,South,170,0.0,8.0,52,0.00,,SKC,0.00,0.00,VWS V14.01,2013-04-12 00:08:00,
2013-04-11 20:10:00,75.8,56.9,29.72,SW,223,8.0,8.0,52,0.00,,SKC,0.00,0.00,VWS V14.01,2013-04-12 00:10:00,
2013-04-11 20:11:00,75.8,57.5,29.72,SSW,201,2.0,8.0,53,0.00,,SKC,0.00,0.00,VWS V14.01,2013-04-12 00:11:00,
2013-04-11 20:14:00,75.7,57.4,29.72,South,171,2.0,8.0,53,0.00,,SKC,0.00,0.00,VWS V14.01,2013-04-12 00:14:00,
2013-04-11 20:15:00,75.6,57.3,29.72,SW,215,5.0,8.0,53,0.00,,SKC,0.00,0.00,VWS V14.01,2013-04-12 00:15:00,
2013-04-11 20:17:00,75.5,57.2,29.72,SSW,204,0.0,8.0,53,0.00,,SKC,0.00,0.00,VWS V14.01,2013-04-12 00:17:00,
2013-04-11 20:18:00,75.5,57.2,29.72,SSW,204,1.0,8.0,53,0.00,,SKC,0.00,0.00,VWS V14.01,2013-04-12 00:18:00,
2013-04-11 20:19:00,75.4,57.1,29.72,SSW,203,4.0,8.0,53,0.00,,SKC,0.00,0.00,VWS V14.01,2013-04-12 00:19:00,
2013-04-11 20:20:00,75.3,57.0,29.72,SSW,201,2.0,8.0,53,0.00,,SKC,0.00,0.00,VWS V14.01,2013-04-12 00:20:00,
2013-04-11 20:22:00,75.1,57.3,29.72,South,190,1.0,8.0,54,0.00,,SKC,0.00,0.00,VWS V14.01,2013-04-12 00:22:00,
2013-04-11 20:23:00,75.1,57.3,29.72,South,178,2.0,8.0,54,0.00,,SKC,0.00,0.00,VWS V14.01,2013-04-12 00:23:00,
2013-04-11 20:25:00,75.0,57.2,29.72,SE,137,4.0,8.0,54,0.00,,SKC,0.00,0.00,VWS V14.01,2013-04-12 00:25:00,
2013-04-11 20:28:00,74.9,57.7,29.72,SSE,159,1.0,8.0,55,0.00,,SKC,0.00,0.00,VWS V14.01,2013-04-12 00:28:00,
2013-04-11 20:30:00,74.8,57.6,29.71,SSE,163,2.0,8.0,55,0.00,,SKC,0.00,0.00,VWS V14.01,2013-04-12 00:30:00,
2013-04-11 20:31:00,74.8,57.6,29.71,SSE,163,0.0,8.0,55,0.00,,SKC,0.00,0.00,VWS V14.01,2013-04-12 00:31:00,
2013-04-11 20:33:00,74.6,57.9,29.71,SW,227,5.0,9.0,56,0.00,,SKC,0.00,0.00,VWS V14.01,2013-04-12 00:33:00,
2013-04-11 20:34:00,74.6,57.9,29.71,SW,225,1.0,9.0,56,0.00,,SKC,0.00,0.00,VWS V14.01,2013-04-12 00:34:00,
2013-04-11 20:36:00,74.5,57.8,29.71,South,173,4.0,9.0,56,0.00,,SKC,0.00,0.00,VWS V14.01,2013-04-12 00:36:00,
2013-04-11 20:39:00,74.5,58.3,29.71,SE,136,4.0,9.0,57,0.00,,SKC,0.00,0.00,VWS V14.01,2013-04-12 00:39:00,
2013-04-11 20:42:00,74.4,58.2,29.72,SW,221,5.0,10.0,57,0.00,,SKC,0.00,0.00,VWS V14.01,2013-04-12 00:42:00,
2013-04-11 20:44:00,74.4,58.2,29.72,SW,221,2.0,10.0,57,0.00,,SKC,0.00,0.00,VWS V14.01,2013-04-12 00:44:00,
2013-04-11 20:45:00,74.4,58.2,29.72,SW,221,2.0,10.0,57,0.00,,SKC,0.00,0.00,VWS V14.01,2013-04-12 00:45:00,
2013-04-11 20:47:00,74.3,58.6,29.72,West,271,1.0,10.0,58,0.00,,SKC,0.00,0.00,VWS V14.01,2013-04-12 00:47:00,
2013-04-11 20:48:00,74.3,58.6,29.72,SW,223,2.0,10.0,58,0.00,,SKC,0.00,0.00,VWS V14.01,2013-04-12 00:48:00,
2013-04-11 20:49:00,74.2,58.5,29.72,SSW,213,2.0,10.0,58,0.00,,SKC,0.00,0.00,VWS V14.01,2013-04-12 00:49:00,
2013-04-11 20:52:00,74.2,58.5,29.72,SSW,202,3.0,10.0,58,0.00,,SKC,0.00,0.00,VWS V14.01,2013-04-12 00:52:00,
2013-04-11 20:53:00,74.2,58.5,29.72,SSW,204,0.0,10.0,58,0.00,,SKC,0.00,0.00,VWS V14.01,2013-04-12 00:53:00,
2013-04-11 20:55:00,74.1,58.9,29.72,SSW,204,2.0,10.0,59,0.00,,SKC,0.00,0.00,VWS V14.01,2013-04-12 00:55:00,
2013-04-11 20:58:00,74.0,58.8,29.72,SSW,205,3.0,10.0,59,0.00,,SKC,0.00,0.00,VWS V14.01,2013-04-12 00:58:00,
2013-04-11 20:59:00,74.0,58.8,29.72,SW,220,4.0,10.0,59,0.00,,SKC,0.00,0.00,VWS V14.01,2013-04-12 00:59:00,
2013-04-11 21:02:00,74.0,59.2,29.72,SSW,199,2.0,4.0,60,0.00,,SKC,0.00,0.00,VWS V14.01,2013-04-12 01:02:00,
2013-04-11 21:03:00,74.0,59.2,29.72,SW,225,3.0,4.0,60,0.00,,SKC,0.00,0.00,VWS V14.01,2013-04-12 01:03:00,
2013-04-11 21:04:00,73.9,59.2,29.72,SW,225,2.0,4.0,60,0.00,,SKC,0.00,0.00,VWS V14.01,2013-04-12 01:04:00,
2013-04-11 21:08:00,73.9,59.2,29.72,South,187,7.0,7.0,60,0.00,,SKC,0.00,0.00,VWS V14.01,2013-04-12 01:08:00,
2013-04-11 21:09:00,73.9,59.2,29.72,South,190,1.0,7.0,60,0.00,,SKC,0.00,0.00,VWS V14.01,2013-04-12 01:09:00,
2013-04-11 21:10:00,73.9,59.2,29.72,South,189,2.0,7.0,60,0.00,,SKC,0.00,0.00,VWS V14.01,2013-04-12 01:10:00,
2013-04-11 21:13:00,73.9,59.2,29.72,SW,223,5.0,8.0,60,0.00,,SKC,0.00,0.00,VWS V14.01,2013-04-12 01:13:00,
2013-04-11 21:15:00,73.8,59.5,29.72,SSW,207,1.0,8.0,61,0.00,,SKC,0.00,0.00,VWS V14.01,2013-04-12 01:15:00,
2013-04-11 21:18:00,73.7,59.4,29.72,South,170,0.0,8.0,61,0.00,,SKC,0.00,0.00,VWS V14.01,2013-04-12 01:18:00,
2013-04-11 21:19:00,73.7,59.4,29.72,South,170,2.0,8.0,61,0.00,,SKC,0.00,0.00,VWS V14.01,2013-04-12 01:19:00,
2013-04-11 21:20:00,73.6,59.3,29.72,SSW,211,6.0,8.0,61,0.00,,SKC,0.00,0.00,VWS V14.01,2013-04-12 01:20:00,
2013-04-11 21:21:00,73.7,59.4,29.72,SW,217,3.0,8.0,61,0.00,,SKC,0.00,0.00,VWS V14.01,2013-04-12 01:21:00,
2013-04-11 21:24:00,73.6,59.3,29.72,SSW,202,4.0,8.0,61,0.00,,SKC,0.00,0.00,VWS V14.01,2013-04-12 01:24:00,
2013-04-11 21:25:00,73.6,59.3,29.72,South,178,2.0,8.0,61,0.00,,SKC,0.00,0.00,VWS V14.01,2013-04-12 01:25:00,
2013-04-11 21:26:00,73.6,59.3,29.72,South,175,2.0,8.0,61,0.00,,SKC,0.00,0.00,VWS V14.01,2013-04-12 01:26:00,
2013-04-11 21:29:00,73.5,59.2,29.72,SW,221,6.0,8.0,61,0.00,,SKC,0.00,0.00,VWS V14.01,2013-04-12 01:29:00,
2013-04-11 21:46:00,73.4,59.6,29.73,SSW,207,0.0,6.0,62,0.00,,SKC,0.00,0.00,VWS V14.01,2013-04-12 01:46:00,
2013-04-11 21:47:00,73.4,59.6,29.73,SSW,207,3.0,6.0,62,0.00,,SKC,0.00,0.00,VWS V14.01,2013-04-12 01:47:00,
2013-04-11 21:52:00,73.5,59.7,29.72,SSE,165,2.0,6.0,62,0.00,,SKC,0.00,0.00,VWS V14.01,2013-04-12 01:52:00,
2013-04-11 21:57:00,73.5,59.7,29.72,SSW,196,1.0,6.0,62,0.00,,SKC,0.00,0.00,VWS V14.01,2013-04-12 01:57:00,
2013-04-11 21:58:00,73.5,59.7,29.72,South,190,1.0,6.0,62,0.00,,SKC,0.00,0.00,VWS V14.01,2013-04-12 01:58:00,
2013-04-11 21:59:00,73.5,59.7,29.72,SSW,194,4.0,6.0,62,0.00,,SKC,0.00,0.00,VWS V14.01,2013-04-12 01:59:00,
2013-04-11 22:02:00,73.4,59.6,29.72,SSW,211,3.0,6.0,62,0.00,,SKC,0.00,0.00,VWS V14.01,2013-04-12 02:02:00,
2013-04-11 22:03:00,73.4,59.6,29.72,SSW,209,2.0,6.0,62,0.00,,SKC,0.00,0.00,VWS V14.01,2013-04-12 02:03:00,
2013-04-11 22:04:00,73.4,59.6,29.72,SSW,209,2.0,6.0,62,0.00,,SKC,0.00,0.00,VWS V14.01,2013-04-12 02:04:00,
2013-04-11 22:07:00,73.3,60.0,29.72,SSW,208,0.0,6.0,63,0.00,,SKC,0.00,0.00,VWS V14.01,2013-04-12 02:07:00,
2013-04-11 22:08:00,73.3,60.0,29.72,SSE,150,1.0,6.0,63,0.00,,SKC,0.00,0.00,VWS V14.01,2013-04-12 02:08:00,
2013-04-11 22:09:00,73.3,60.0,29.72,SSW,203,6.0,6.0,63,0.00,,SKC,0.00,0.00,VWS V14.01,2013-04-12 02:09:00,
2013-04-11 22:12:00,73.4,60.0,29.72,South,181,5.0,6.0,63,0.00,,SKC,0.00,0.00,VWS V14.01,2013-04-12 02:12:00,
2013-04-11 22:13:00,73.4,60.0,29.72,SSW,198,0.0,6.0,63,0.00,,SKC,0.00,0.00,VWS V14.01,2013-04-12 02:13:00,
2013-04-11 22:15:00,73.4,60.0,29.72,SSW,194,3.0,6.0,63,0.00,,SKC,0.00,0.00,VWS V14.01,2013-04-12 02:15:00,
2013-04-11 22:17:00,73.3,60.0,29.72,South,177,1.0,6.0,63,0.00,,SKC,0.00,0.00,VWS V14.01,2013-04-12 02:17:00,
2013-04-11 22:18:00,73.3,60.0,29.72,SSW,200,4.0,6.0,63,0.00,,SKC,0.00,0.00,VWS V14.01,2013-04-12 02:18:00,
2013-04-11 22:19:00,73.3,60.0,29.72,SSW,204,5.0,6.0,63,0.00,,SKC,0.00,0.00,VWS V14.01,2013-04-12 02:19:00,
2013-04-11 22:20:00,73.3,60.0,29.72,SSW,211,3.0,6.0,63,0.00,,SKC,0.00,0.00,VWS V14.01,2013-04-12 02:20:00,
2013-04-11 22:22:00,73.3,60.0,29.72,South,184,0.0,6.0,63,0.00,,SKC,0.00,0.00,VWS V14.01,2013-04-12 02:22:00,
2013-04-11 22:24:00,73.3,60.0,29.72,South,184,0.0,6.0,63,0.00,,SKC,0.00,0.00,VWS V14.01,2013-04-12 02:24:00,
2013-04-11 22:25:00,73.2,59.9,29.72,SSW,194,0.0,6.0,63,0.00,,SKC,0.00,0.00,VWS V14.01,2013-04-12 02:25:00,
2013-04-11 22:27:00,73.2,59.9,29.72,South,181,0.0,6.0,63,0.00,,SKC,0.00,0.00,VWS V14.01,2013-04-12 02:27:00,
2013-04-11 22:29:00,73.2,59.9,29.72,SSW,194,1.0,6.0,63,0.00,,SKC,0.00,0.00,VWS V14.01,2013-04-12 02:29:00,
2013-04-11 22:30:00,73.2,59.9,29.72,SSW,196,2.0,6.0,63,0.00,,SKC,0.00,0.00,VWS V14.01,2013-04-12 02:30:00,
2013-04-11 22:33:00,73.2,59.9,29.72,South,190,1.0,1.0,63,0.00,,SKC,0.00,0.00,VWS V14.01,2013-04-12 02:33:00,
2013-04-11 22:34:00,73.2,59.9,29.72,South,190,0.0,1.0,63,0.00,,SKC,0.00,0.00,VWS V14.01,2013-04-12 02:34:00,
2013-04-11 22:35:00,73.2,59.9,29.72,South,190,1.0,1.0,63,0.00,,SKC,0.00,0.00,VWS V14.01,2013-04-12 02:35:00,
2013-04-11 22:38:00,73.0,60.1,29.72,South,190,2.0,2.0,64,0.00,,SKC,0.00,0.00,VWS V14.01,2013-04-12 02:38:00,
2013-04-11 22:39:00,72.9,60.0,29.72,South,182,2.0,3.0,64,0.00,,SKC,0.00,0.00,VWS V14.01,2013-04-12 02:39:00,
2013-04-11 22:40:00,72.8,59.9,29.72,SW,219,4.0,4.0,64,0.00,,SKC,0.00,0.00,VWS V14.01,2013-04-12 02:40:00,
2013-04-11 22:43:00,72.8,59.9,29.72,SE,143,1.0,4.0,64,0.00,,SKC,0.00,0.00,VWS V14.01,2013-04-12 02:43:00,
2013-04-11 22:44:00,72.8,59.9,29.72,SE,140,2.0,4.0,64,0.00,,SKC,0.00,0.00,VWS V14.01,2013-04-12 02:44:00,
2013-04-11 22:45:00,72.8,59.9,29.72,SE,140,0.0,4.0,64,0.00,,SKC,0.00,0.00,VWS V14.01,2013-04-12 02:45:00,
2013-04-11 22:48:00,72.8,60.4,29.72,SE,140,0.0,4.0,65,0.00,,SKC,0.00,0.00,VWS V14.01,2013-04-12 02:48:00,
2013-04-11 22:49:00,72.7,60.3,29.72,SE,140,4.0,4.0,65,0.00,,SKC,0.00,0.00,VWS V14.01,2013-04-12 02:49:00,
2013-04-11 22:50:00,72.8,60.4,29.71,SE,140,1.0,4.0,65,0.00,,SKC,0.00,0.00,VWS V14.01,2013-04-12 02:50:00,
2013-04-11 22:53:00,72.8,60.4,29.71,SE,144,0.0,4.0,65,0.00,,SKC,0.00,0.00,VWS V14.01,2013-04-12 02:53:00,
2013-04-11 22:54:00,72.8,60.4,29.72,SSW,207,6.0,6.0,65,0.00,,SKC,0.00,0.00,VWS V14.01,2013-04-12 02:54:00,
2013-04-11 22:55:00,72.8,60.4,29.72,SSW,199,4.0,7.0,65,0.00,,SKC,0.00,0.00,VWS V14.01,2013-04-12 02:55:00,
2013-04-11 22:58:00,73.0,60.5,29.71,SSE,167,0.0,8.0,65,0.00,,SKC,0.00,0.00,VWS V14.01,2013-04-12 02:58:00,
2013-04-11 23:00:00,73.0,60.5,29.71,SSW,213,1.0,8.0,65,0.00,,SKC,0.00,0.00,VWS V14.01,2013-04-12 03:00:00,
2013-04-11 23:01:00,73.0,60.5,29.71,SSW,207,2.0,3.0,65,0.00,,SKC,0.00,0.00,VWS V14.01,2013-04-12 03:01:00,
2013-04-11 23:03:00,73.0,60.5,29.71,SSW,206,0.0,5.0,65,0.00,,SKC,0.00,0.00,VWS V14.01,2013-04-12 03:03:00,
2013-04-11 23:05:00,73.0,60.5,29.71,SE,146,4.0,5.0,65,0.00,,SKC,0.00,0.00,VWS V14.01,2013-04-12 03:05:00,
2013-04-11 23:06:00,73.0,60.5,29.71,SE,136,4.0,5.0,65,0.00,,SKC,0.00,0.00,VWS V14.01,2013-04-12 03:06:00,
2013-04-11 23:07:00,73.0,60.5,29.71,SE,139,2.0,5.0,65,0.00,,SKC,0.00,0.00,VWS V14.01,2013-04-12 03:07:00,
2013-04-11 23:09:00,73.0,60.5,29.71,SE,136,3.0,5.0,65,0.00,,SKC,0.00,0.00,VWS V14.01,2013-04-12 03:09:00,
2013-04-11 23:10:00,73.0,60.5,29.71,SE,140,1.0,5.0,65,0.00,,SKC,0.00,0.00,VWS V14.01,2013-04-12 03:10:00,
2013-04-11 23:11:00,73.0,60.5,29.71,SE,140,1.0,5.0,65,0.00,,SKC,0.00,0.00,VWS V14.01,2013-04-12 03:11:00,
2013-04-11 23:14:00,73.0,60.5,29.70,SE,140,0.0,5.0,65,0.00,,SKC,0.00,0.00,VWS V14.01,2013-04-12 03:14:00,
2013-04-11 23:15:00,73.0,60.5,29.70,SE,140,0.0,5.0,65,0.00,,SKC,0.00,0.00,VWS V14.01,2013-04-12 03:15:00,
2013-04-11 23:16:00,73.0,60.5,29.70,SE,140,0.0,5.0,65,0.00,,SKC,0.00,0.00,VWS V14.01,2013-04-12 03:16:00,
2013-04-11 23:17:00,73.0,60.5,29.70,SE,140,0.0,5.0,65,0.00,,SKC,0.00,0.00,VWS V14.01,2013-04-12 03:17:00,
2013-04-11 23:19:00,72.9,60.5,29.70,SE,140,0.0,5.0,65,0.00,,SKC,0.00,0.00,VWS V14.01,2013-04-12 03:19:00,
2013-04-11 23:20:00,72.9,60.5,29.70,SE,140,0.0,5.0,65,0.00,,SKC,0.00,0.00,VWS V14.01,2013-04-12 03:20:00,
2013-04-11 23:22:00,72.8,60.4,29.70,SE,140,0.0,5.0,65,0.00,,SKC,0.00,0.00,VWS V14.01,2013-04-12 03:22:00,
2013-04-11 23:23:00,72.8,60.4,29.70,SE,140,0.0,5.0,65,0.00,,SKC,0.00,0.00,VWS V14.01,2013-04-12 03:23:00,
2013-04-11 23:24:00,72.8,60.4,29.70,SE,140,3.0,7.0,65,0.00,,SKC,0.00,0.00,VWS V14.01,2013-04-12 03:24:00,
2013-04-11 23:25:00,72.8,60.4,29.70,SE,141,2.0,7.0,65,0.00,,SKC,0.00,0.00,VWS V14.01,2013-04-12 03:25:00,
2013-04-11 23:27:00,72.8,60.4,29.70,SE,128,3.0,7.0,65,0.00,,SKC,0.00,0.00,VWS V14.01,2013-04-12 03:27:00,
2013-04-11 23:28:00,72.8,60.4,29.70,SE,128,3.0,7.0,65,0.00,,SKC,0.00,0.00,VWS V14.01,2013-04-12 03:28:00,
2013-04-11 23:29:00,72.8,60.4,29.70,SE,127,6.0,7.0,65,0.00,,SKC,0.00,0.00,VWS V14.01,2013-04-12 03:29:00,
2013-04-11 23:30:00,72.8,60.4,29.70,SE,131,1.0,7.0,65,0.00,,SKC,0.00,0.00,VWS V14.01,2013-04-12 03:30:00,
2013-04-11 23:32:00,72.8,60.4,29.70,SSW,200,1.0,4.0,65,0.00,,SKC,0.00,0.00,VWS V14.01,2013-04-12 03:32:00,
2013-04-11 23:33:00,72.7,60.3,29.70,SE,134,5.0,5.0,65,0.00,,SKC,0.00,0.00,VWS V14.01,2013-04-12 03:33:00,
2013-04-11 23:34:00,72.7,60.3,29.70,ESE,123,3.0,5.0,65,0.00,,SKC,0.00,0.00,VWS V14.01,2013-04-12 03:34:00,
2013-04-11 23:35:00,72.7,60.3,29.70,SE,126,0.0,5.0,65,0.00,,SKC,0.00,0.00,VWS V14.01,2013-04-12 03:35:00,
2013-04-11 23:37:00,72.7,60.7,29.70,SE,126,1.0,5.0,66,0.00,,SKC,0.00,0.00,VWS V14.01,2013-04-12 03:37:00,
2013-04-11 23:39:00,72.7,60.7,29.70,SE,127,1.0,5.0,66,0.00,,SKC,0.00,0.00,VWS V14.01,2013-04-12 03:39:00,
2013-04-11 23:40:00,72.6,60.6,29.70,SE,128,4.0,5.0,66,0.00,,SKC,0.00,0.00,VWS V14.01,2013-04-12 03:40:00,
2013-04-11 23:43:00,72.6,60.6,29.70,SE,142,3.0,6.0,66,0.00,,SKC,0.00,0.00,VWS V14.01,2013-04-12 03:43:00,
2013-04-11 23:44:00,72.6,60.6,29.70,SE,129,3.0,6.0,66,0.00,,SKC,0.00,0.00,VWS V14.01,2013-04-12 03:44:00,
2013-04-11 23:45:00,72.6,60.6,29.70,ESE,115,7.0,7.0,66,0.00,,SKC,0.00,0.00,VWS V14.01,2013-04-12 03:45:00,
2013-04-11 23:48:00,72.5,60.5,29.70,SE,128,4.0,8.0,66,0.00,,SKC,0.00,0.00,VWS V14.01,2013-04-12 03:48:00,
2013-04-11 23:49:00,72.5,60.5,29.70,SE,137,7.0,8.0,66,0.00,,SKC,0.00,0.00,VWS V14.01,2013-04-12 03:49:00,
2013-04-11 23:52:00,72.4,60.4,29.70,SE,136,5.0,9.0,66,0.00,,SKC,0.00,0.00,VWS V14.01,2013-04-12 03:52:00,
2013-04-11 23:53:00,72.4,60.4,29.70,SSE,148,3.0,9.0,66,0.00,,SKC,0.00,0.00,VWS V14.01,2013-04-12 03:53:00,
2013-04-11 23:54:00,72.3,60.3,29.70,SE,134,7.0,13.0,66,0.00,,SKC,0.00,0.00,VWS V14.01,2013-04-12 03:54:00,
2013-04-11 23:55:00,72.3,60.3,29.70,ESE,121,7.0,13.0,66,0.00,,SKC,0.00,0.00,VWS V14.01,2013-04-12 03:55:00,
2013-04-11 23:57:00,72.3,60.3,29.70,SE,132,6.0,13.0,66,0.00,,SKC,0.00,0.00,VWS V14.01,2013-04-12 03:57:00,
2013-04-11 23:58:00,72.3,60.7,29.70,SE,129,7.0,13.0,67,0.00,,SKC,0.00,0.00,VWS V14.01,2013-04-12 03:58:00,
2013-04-11 23:59:00,72.2,60.7,29.70,SE,132,4.0,13.0,67,0.00,,SKC,0.00,0.00,VWS V14.01,2013-04-12 03:59:00,